Date String (YYYY-MM-DD hh:mm:ss) UTC,Instrument flags,Ambient pressure (hPa),Sample flow (lpm),Bypass flow (lpm),Sample temperature (°C),Ambient temperature (°C),ASC tube jacket temperature (°C),LED temperature (°C),Box temperature (°C),Sample RH (%),Span deviation,Mass concentration (μg/m³),Mass concentration (μg/m³),Mass concentration (μg/m³)
DateTimeUTC,F1_M11,P_M11,Q1_M11,Q2_M11,T1_M11,T2_M11,T3_M11,T4_M11,T5_M11,U1_M11,ZSPAN_M11,X0_M11,X2_M11,X1_M11
2021-09-17 00:00:00,,0821.6,4.99,0.00,28.8,26.4,00.0,38.0,30.5,11.1,0001.1,0013.39,0006.40,0005.74
2021-09-17 00:01:00,,0821.6,5.00,0.00,28.9,26.9,00.0,38.0,30.6,10.6,0001.7,0013.35,0006.41,0005.73
2021-09-17 00:02:00,,0821.7,5.00,0.00,28.9,27.4,00.0,38.0,30.8,10.3,0001.7,0012.55,0006.39,0005.74
2021-09-17 00:03:00,,0821.7,5.00,0.00,29.0,27.7,00.0,38.0,30.9,10.2,0001.9,0012.45,0006.39,0005.76
2021-09-17 00:04:00,,0821.7,5.01,0.00,29.0,28.0,00.0,38.0,31.0,10.2,0002.0,0011.65,0006.38,0005.76
2021-09-17 00:05:00,,0821.7,5.00,0.00,29.1,27.6,00.0,38.0,30.8,10.3,0002.0,0011.01,0006.29,0005.75
2021-09-17 00:06:00,,0821.7,5.01,0.00,28.9,25.8,00.0,38.0,30.3,10.4,0001.9,0010.44,0006.25,0005.75
2021-09-17 00:07:00,,0821.7,4.98,0.00,28.8,25.5,00.0,38.0,30.2,10.6,0001.9,0009.99,0006.25,0005.76
2021-09-17 00:08:00,,0821.7,5.00,0.00,28.8,25.9,00.0,37.9,30.3,10.8,0002.1,0009.94,0006.27,0005.77
2021-09-17 00:09:00,,0821.7,5.00,0.00,28.7,26.4,00.0,37.9,30.4,10.5,0002.4,0009.79,0006.26,0005.77
2021-09-17 00:10:00,,0821.7,4.99,0.00,28.8,26.8,00.0,37.9,30.5,10.5,0002.5,0009.74,0006.28,0005.77
2021-09-17 00:11:00,,0821.7,5.00,0.00,28.8,27.2,00.0,37.9,30.7,10.3,0002.2,0009.80,0006.28,0005.76
2021-09-17 00:12:00,,0821.7,4.99,0.00,28.9,27.6,00.0,37.9,30.8,10.4,0001.9,0009.54,0006.27,0005.78
2021-09-17 00:13:00,,0821.8,5.01,0.00,29.0,27.9,00.0,37.9,30.9,10.5,0001.7,0009.51,0006.27,0005.77
2021-09-17 00:14:00,,0821.9,5.00,0.00,29.1,28.1,00.0,38.0,31.0,10.6,0002.1,0009.56,0006.27,0005.75
2021-09-17 00:15:00,,0821.8,5.00,0.00,29.0,26.9,00.0,38.0,30.7,10.6,0001.9,0009.56,0006.27,0005.75
2021-09-17 00:16:00,,0821.8,5.01,0.00,28.9,25.5,00.0,37.9,30.3,10.7,0001.8,0010.28,0006.28,0005.76
2021-09-17 00:17:00,,0821.8,4.99,0.00,28.8,25.7,00.0,37.9,30.3,10.9,0001.9,0010.34,0006.30,0005.77
2021-09-17 00:18:00,,0821.8,5.00,0.00,28.8,26.1,00.0,37.9,30.4,11.0,0001.9,0010.34,0006.31,0005.75
2021-09-17 00:19:00,,0821.7,5.00,0.00,28.8,26.6,00.0,37.9,30.5,11.1,0001.7,0010.54,0006.33,0005.74
2021-09-17 00:20:00,,0821.8,5.01,0.00,28.8,27.0,00.0,37.9,30.6,10.7,0001.4,0011.55,0006.35,0005.73
2021-09-17 00:21:00,,0821.8,4.99,0.00,28.9,27.4,00.0,37.9,30.7,10.5,0001.5,0011.75,0006.36,0005.75
2021-09-17 00:22:00,,0822.0,5.01,0.00,28.9,27.8,00.0,37.9,30.9,10.3,0001.6,0011.64,0006.38,0005.78
2021-09-17 00:23:00,,0821.8,5.00,0.00,29.0,28.0,00.0,37.9,31.0,10.3,0001.8,0011.57,0006.36,0005.79
2021-09-17 00:24:00,,0821.8,5.00,0.00,29.1,28.2,00.0,38.0,31.0,10.2,0001.7,0011.59,0006.38,0005.81
2021-09-17 00:25:00,,0821.8,5.00,0.00,29.1,27.2,00.0,38.0,30.8,10.6,0001.2,0012.04,0006.40,0005.83
2021-09-17 00:26:00,,0821.8,5.00,0.00,28.9,25.5,00.0,38.0,30.3,10.8,0001.4,0013.79,0006.44,0005.84
2021-09-17 00:27:00,,0822.2,5.00,0.00,28.8,25.6,00.0,37.9,30.3,10.8,0001.7,0013.56,0006.47,0005.84
2021-09-17 00:28:00,,0822.3,5.00,0.00,28.8,26.0,00.0,37.9,30.4,10.9,0001.7,0013.71,0006.49,0005.84
2021-09-17 00:29:00,,0821.9,5.00,0.00,28.8,26.5,00.0,37.9,30.5,11.0,0001.7,0013.85,0006.51,0005.86
2021-09-17 00:30:00,,0822.0,4.99,0.00,28.8,26.9,00.0,37.9,30.6,10.8,0002.0,0014.06,0006.53,0005.89
2021-09-17 00:31:00,,0822.0,4.99,0.00,28.9,27.3,00.0,37.9,30.7,10.9,0001.8,0013.68,0006.57,0005.91
2021-09-17 00:32:00,,0822.0,5.01,0.00,28.9,27.7,00.0,37.9,30.8,10.9,0001.7,0014.61,0006.61,0005.92
2021-09-17 00:33:00,,0821.9,4.99,0.00,29.0,28.0,00.0,37.9,30.9,10.7,0001.8,0015.98,0006.64,0005.91
2021-09-17 00:34:00,,0821.9,5.01,0.00,29.1,28.2,00.0,37.9,31.0,10.2,0001.3,0016.36,0006.68,0005.92
2021-09-17 00:35:00,,0822.0,5.00,0.00,29.1,28.4,00.0,38.0,31.1,10.2,0001.4,0016.33,0006.68,0005.93
2021-09-17 00:36:00,,0822.0,4.99,0.00,29.2,27.7,00.0,38.0,30.9,10.4,0001.5,0016.12,0006.69,0005.95
2021-09-17 00:37:00,,0822.0,5.01,0.00,29.0,25.9,00.0,38.0,30.4,10.6,0001.7,0015.51,0006.73,0005.98
2021-09-17 00:38:00,,0822.1,5.01,0.00,28.9,25.5,00.0,38.0,30.2,10.8,0001.7,0015.65,0006.75,0006.02
2021-09-17 00:39:00,,0822.0,4.99,0.00,28.8,25.9,00.0,38.0,30.4,10.9,0001.7,0017.33,0006.75,0006.04
2021-09-17 00:40:00,,0821.9,5.00,0.00,28.8,26.4,00.0,37.9,30.5,10.7,0001.8,0017.91,0006.75,0006.05
2021-09-17 00:41:00,,0822.0,5.00,0.00,28.8,26.9,00.0,37.9,30.6,10.3,0001.7,0017.59,0006.74,0006.09
2021-09-17 00:42:00,,0822.0,5.00,0.00,28.9,27.3,00.0,37.9,30.7,10.2,0002.0,0017.19,0006.75,0006.11
2021-09-17 00:43:00,,0822.1,5.01,0.00,28.9,27.7,00.0,37.9,30.8,10.4,0001.9,0016.05,0006.75,0006.13
2021-09-17 00:44:00,,0822.0,5.00,0.00,29.0,27.9,00.0,38.0,30.9,10.5,0001.9,0014.85,0006.74,0006.16
2021-09-17 00:45:00,,0822.0,5.00,0.00,29.1,28.2,00.0,38.0,31.0,10.3,0002.1,0014.74,0006.76,0006.18
2021-09-17 00:46:00,,0822.1,4.99,0.00,29.1,28.4,00.0,38.0,31.1,10.4,0002.3,0014.89,0006.81,0006.19
2021-09-17 00:47:00,,0822.1,5.01,0.00,29.2,28.5,00.0,38.0,31.2,10.4,0002.3,0014.83,0006.87,0006.21
2021-09-17 00:48:00,,0822.1,5.00,0.00,29.2,27.3,00.0,38.1,30.9,10.4,0002.1,0014.63,0006.91,0006.22
2021-09-17 00:49:00,,0822.1,5.00,0.00,29.0,25.6,00.0,38.0,30.4,10.5,0002.1,0014.29,0006.93,0006.22
2021-09-17 00:50:00,,0822.1,5.00,0.00,28.9,25.7,00.0,38.0,30.4,10.7,0001.8,0012.48,0006.93,0006.24
2021-09-17 00:51:00,,0822.1,5.00,0.00,28.9,26.1,00.0,38.0,30.5,10.6,0001.7,0012.01,0006.93,0006.24
2021-09-17 00:52:00,,0822.1,5.00,0.00,28.9,26.6,00.0,38.0,30.6,10.6,0001.8,0012.81,0006.91,0006.23
2021-09-17 00:53:00,,0822.1,5.01,0.00,28.9,27.0,00.0,38.0,30.7,10.5,0001.7,0012.62,0006.89,0006.23
2021-09-17 00:54:00,,0822.1,5.00,0.00,29.0,27.4,00.0,38.0,30.8,10.5,0001.9,0012.80,0006.90,0006.24
2021-09-17 00:55:00,,0822.1,4.98,0.00,29.0,27.7,00.0,38.0,30.9,10.4,0001.7,0013.61,0006.91,0006.26
2021-09-17 00:56:00,,0822.1,5.01,0.00,29.1,28.0,00.0,38.0,31.0,10.6,0001.8,0013.53,0006.90,0006.26
2021-09-17 00:57:00,,0822.1,5.01,0.00,29.1,28.2,00.0,38.0,31.1,10.5,0002.0,0013.45,0006.89,0006.26
2021-09-17 00:58:00,,0822.1,5.00,0.00,29.2,28.4,00.0,38.1,31.2,10.4,0001.8,0013.23,0006.85,0006.27
2021-09-17 00:59:00,,0822.1,4.99,0.00,29.3,28.6,00.0,38.1,31.2,10.5,0001.8,0012.49,0006.81,0006.28
